Location: Chervonnoye
(48.6000°N, 34.4000°E)
Time: 05:39:57
(UTC+00:00)

Lacrosse 5 rocket - Pass Details

Date: 23 November 2020
Orbit: 461 x 634 km, 57.0° (Epoch: 18 January)

Event Time Altitude Azimuth Distance (km) Brightness Sun altitude
Rises 15:55:22 0° 190° (S) 2,514 4.9 -19.5°
Reaches altitude 10° 15:58:04 10° 169° (S) 1,622 3.7 -20.0°
Enters shadow 15:58:30 12° 163° (SSE) 1,511 3.5 -20.0°
